Weather History for KGSH - March, 2014

Change the Weather History Date:

Monday, March 24, 2014

  Actual Average Record
Temperature  
Mean Temperature 25 °F -  
Max Temperature 35 °F 48 °F 73 °F (2003)
Min Temperature 16 °F 29 °F 3 °F (1965)
Degree Days  
Heating Degree Days 40    
Moisture  
Dew Point 11 °F    
Average Humidity 59    
Maximum Humidity 84    
Minimum Humidity 33    
Precipitation  
Precipitation 0.00 in - - ()
Sea Level Pressure  
Sea Level Pressure 30.29 in    
Wind  
Wind Speed 4 mph (WSW)    
Max Wind Speed 15 mph    
Max Gust Speed 18 mph    
Visibility 10 miles    
Events      
Averages and records for this station are not official NWS values.
T = Trace of Precipitation, MM = Missing Value Source: NWS Daily Summary

Daily Weather History Graph

Daily Weather History Graph

Search for Another Location

Airport or City:

Trip Planner

Search our weather history database for the weather conditions in past years. The results will help you decide how hot, cold, wet, or windy it might be!

Date:

Astronomy

Mar. 24, 2014 Rise Set
Actual Time 7:39 AM EDT 7:59 PM EDT
Civil Twilight 7:11 AM EDT 8:27 PM EDT
Nautical Twilight 6:39 AM EDT 9:00 PM EDT
Astronomical Twilight 6:06 AM EDT 9:33 PM EDT
Moon 3:13 AM EDT (3/24) 1:20 PM EDT (3/24)
Length of Visible Light 13h 15m
Length of Day
12h 20m
Last Quarter, 43% of the Moon is Illuminated
Mar 24
Last Quarter
Mar 30
New
Apr 7
First Quarter
Apr 15
Full
Apr 22
Last Quarter

Hourly Weather History & Observations

Time (EDT) Temp. Windchill Dew Point Humidity Pressure Visibility Wind Dir Wind Speed Gust Speed Precip Events Conditions
12:53 AM 19.9 °F - 10.9 °F 68% 30.39 in 10.0 mi Calm Calm - N/A   Clear
1:53 AM 19.0 °F - 12.0 °F 74% 30.39 in 10.0 mi Calm Calm - N/A   Clear
2:53 AM 18.0 °F - 10.9 °F 74% 30.38 in 10.0 mi Calm Calm - N/A   Clear
3:53 AM 19.0 °F - 10.0 °F 68% 30.38 in 10.0 mi Calm Calm - N/A   Clear
4:53 AM 18.0 °F - 10.9 °F 74% 30.38 in 10.0 mi Calm Calm - N/A   Clear
5:53 AM 18.0 °F - 12.0 °F 78% 30.38 in 10.0 mi Calm Calm - N/A   Clear
6:53 AM 17.1 °F - 10.9 °F 77% 30.37 in 10.0 mi Calm Calm - N/A   Clear
7:53 AM 16.0 °F 8.8 °F 12.0 °F 84% 30.37 in 10.0 mi South 4.6 mph - N/A   Clear
8:53 AM 21.0 °F 13.4 °F 10.0 °F 63% 30.37 in 10.0 mi South 5.8 mph - N/A   Clear
9:53 AM 23.0 °F 13.9 °F 12.0 °F 63% 30.35 in 10.0 mi SSW 8.1 mph - N/A   Clear
10:53 AM 27.0 °F 18.0 °F 14.0 °F 58% 30.34 in 10.0 mi WSW 9.2 mph - N/A   Clear
11:53 AM 28.0 °F 19.3 °F 12.9 °F 53% 30.33 in 10.0 mi SW 9.2 mph - N/A   Mostly Cloudy
12:53 PM 28.9 °F 17.7 °F 12.0 °F 49% 30.31 in 10.0 mi West 15.0 mph - N/A   Overcast
1:53 PM 30.9 °F 20.7 °F 12.9 °F 47% 30.28 in 10.0 mi West 13.8 mph - N/A   Overcast
2:53 PM 32.0 °F 23.0 °F 12.9 °F 45% 30.25 in 10.0 mi West 11.5 mph - N/A   Mostly Cloudy
3:53 PM 32.0 °F 22.5 °F 15.1 °F 50% 30.23 in 10.0 mi WNW 12.7 mph 18.4 mph N/A   Overcast
4:53 PM 34.0 °F 24.2 °F 14.0 °F 44% 30.21 in 10.0 mi WNW 15.0 mph - N/A   Overcast
5:53 PM 32.0 °F 21.6 °F 9.0 °F 38% 30.21 in 10.0 mi WNW 15.0 mph - N/A   Clear
6:53 PM 30.9 °F 22.8 °F 5.0 °F 33% 30.20 in 10.0 mi WNW 9.2 mph - N/A   Clear
7:53 PM 28.0 °F 20.8 °F 8.1 °F 43% 30.19 in 10.0 mi WNW 6.9 mph - N/A   Clear
8:53 PM 28.0 °F - 8.1 °F 43% 30.17 in 10.0 mi Calm Calm - N/A   Clear
9:53 PM 24.1 °F - 12.9 °F 62% 30.16 in 10.0 mi Calm Calm - N/A   Clear
10:53 PM 23.0 °F 18.4 °F 12.9 °F 65% 30.14 in 9.0 mi SSE 3.5 mph - N/A   Clear
11:53 PM 24.1 °F 18.2 °F 12.0 °F 60% 30.13 in 10.0 mi South 4.6 mph - N/A   Clear